Regional Weather Roundup
Issued by NWS

Home | Current Version | Previous Version | Text Only | Print | Product List | Glossary On
Versions: 1 2 3 4 5 6 7 8 9 10 11 12 13 14 15 16 17 18 19 20 21 22 23 24 25 26 27 28 29 30 31 32 33 34 35 36 37 38 39 40 41 42 43 44 45 46 47 48 49 50
000
ASUS43 KTOP 300608
RWRKS

WEATHER ROUNDUP FOR KANSAS
NATIONAL WEATHER SERVICE GOODLAND KS
100 AM CDT TUE JUN 30 2015

NOTE:  "FAIR" INDICATES FEW OR NO CLOUDS BELOW 12,000 FEET WITH NO
SIGNIFICANT WEATHER AND/OR OBSTRUCTIONS TO VISIBILITY.

KSZ001>006-013>018-027>032-041>047-300700-
NORTHWEST KANSAS

CITY           SKY/WX    TMP DP  RH WIND       PRES   REMARKS
GOODLAND       CLEAR     67  57  70 SW8       30.11R
6HR MIN TEMP:  66; 6HR MAX TEMP:  85; 6HR PCP: TRACE;

HAYS           CLEAR     72  52  49 SE9       30.01S
HILL CITY      CLEAR     67  55  65 S3        30.02R
6HR MIN TEMP:  67; 6HR MAX TEMP:  97;

RUSSELL        CLEAR     72  58  61 SE9       29.99S
6HR MIN TEMP:  71; 6HR MAX TEMP:  95;

$$

KSZ061>065-074>080-084>089-300700-
SOUTHWEST KANSAS

CITY           SKY/WX    TMP DP  RH WIND       PRES   REMARKS
DODGE CITY     PTCLDY    67  56  67 S6        30.06S
6HR MIN TEMP:  66; 6HR MAX TEMP:  88;

ELKHART          N/A     74  53  48 SW5         N/A
GARDEN CITY    CLEAR     67  60  78 SW3       30.07R
6HR MIN TEMP:  66; 6HR MAX TEMP:  87;

GREAT BEND     CLEAR     72  59  64 SE6       30.02R
LIBERAL        CLEAR     72  59  64 S3          N/A
PRATT          CLEAR    N/A N/A N/A SE5       30.04R
$$

KSZ066>073-081>083-090>101-300700-
SOUTHEAST KANSAS

CITY           SKY/WX    TMP DP  RH WIND       PRES   REMARKS
CHANUTE        CLEAR     66  63  90 S6        29.97R
6HR MIN TEMP:  66; 6HR MAX TEMP:  86;

COFFEYVILLE    CLEAR     70  66  87 CALM      29.96S
6HR MIN TEMP:  69; 6HR MAX TEMP:  88;

HUTCHINSON     CLEAR     67  59  75 CALM      30.01R
6HR MIN TEMP:  65; 6HR MAX TEMP:  91;

MEDICINE LODGE   N/A     73  59  61 CALM      30.00S
NEWTON         CLEAR     73  55  53 W3        30.03R
PARSONS        CLEAR     67  66  97 CALM      29.98R
6HR MIN TEMP:  66; 6HR MAX TEMP:  87;

WICHITA INTL   PTCLDY    70  60  70 SW6       29.99R
6HR MIN TEMP:  70; 6HR MAX TEMP:  89;

WICHITA JABRA  CLEAR     73  60  63 SW7       30.00R
6HR MIN TEMP:  72; 6HR MAX TEMP:  85;

WICHITA MCCONL CLEAR     71  61  70 SW3       30.00R
WINFIELD       CLEAR     72  63  73 CALM      30.00S
6HR MIN TEMP:  69; 6HR MAX TEMP:  87;

$$

KSZ007>012-019>026-033>040-048>060-102>105-300700-
NORTHEAST KANSAS

CITY           SKY/WX    TMP DP  RH WIND       PRES   REMARKS
CONCORDIA      PTCLDY    71  59  65 S5        29.97S
6HR MIN TEMP:  70; 6HR MAX TEMP:  86;

EMPORIA        PTCLDY    65  60  84 SW6       29.97R
6HR MIN TEMP:  65; 6HR MAX TEMP:  85;

LAWRENCE       PTCLDY    67  64  90 CALM      29.94R
6HR MIN TEMP:  66; 6HR MAX TEMP:  84;

MANHATTAN      CLEAR     66  63  90 CALM      29.96R
6HR MIN TEMP:  66; 6HR MAX TEMP:  88; 6HR PCP: TRACE;

MARYSVILLE     CLEAR     64  64 100 CALM      29.95F
OLATHE IND     CLEAR     71  65  81 CALM      29.95S
6HR MIN TEMP:  71; 6HR MAX TEMP:  83;

OLATHE EXE     CLEAR     70  65  84 CALM      29.94S
6HR MIN TEMP:  69; 6HR MAX TEMP:  83;

SALINA         CLEAR     70  60  70 SW9       29.98R
6HR MIN TEMP:  69; 6HR MAX TEMP:  91;

TOPEKA BILLARD CLEAR     71  67  87 CALM      29.94S
6HR MIN TEMP:  70; 6HR MAX TEMP:  85;

TOPEKA FORBES  PTCLDY    71  65  81 S3        29.95R
6HR MIN TEMP:  69; 6HR MAX TEMP:  86;

$$


USA.gov is the U.S. government's official web portal to all federal, state and local government web resources and services.